www.pogodaiklimat.ru

Погода и климат >> Архив погоды >> Россия >> Крым >> Клепинино


ПОГОДА в Клепинино

  • Прогноз погоды в Клепинино
  • Монитор погоды в Клепинино
  • Климат города

АРХИВ ПОГОДЫ в Клепинино

Время (UTC), дата Ветер
(напр.,м/с)
 
Видим.   Явления Облачность Т
(С)
Тd
(С)
f
(%)
Тe
(С)
Тes
(С)
Комфортность P
(гПа)
Po
(гПа)
Тmin
(С)
Tmax
(С)
R
(мм)
R24
(мм)
S
(см)
00 14.06 штиль 0 н/о ясно +14.7 +12.3 86 +14 +14 1006.8 1002.4
03 14.06 штиль 0 20 км ясно +14.9 +13.8 93 +15 +15 1007.2 1002.8 +14.7
06 14.06 В 3 20 км ясно +28.0 +13.1 40 +30 +37 жарко 1006.7 1002.5 +14.7
09 14.06 ЮВ 3 20 км 3/0
[Ci sp]
+31.3 +9.7 26 +31 +45 жарко 1006.3 1002.2
12 14.06 В 3 20 км 4/0
[Ci sp]
+33.3 +9.3 23 +32 +44 жарко 1005.4 1001.3
15 14.06 В 5-10
{10}
20 км 3/0
[Ci sp]
+31.3 +10.8 28 +31 +33 жарко 1004.6 1000.5
18 14.06 ЮВ 3
{10}
20 км 1/0
[Ci fib]
+26.1 +9.9 36 +27 +27 жарко 1005.3 1001.1 +34.0
21 14.06 В 1 н/о ясно +19.3 +12.3 64 +22 +22 комфорт 1005.9 1001.6
00 15.06 штиль 0 н/о ясно +18.0 +13.8 76 +18 +18 1005.4 1001.1
03 15.06 штиль 0 20 км 3/0
[Ci fib]
+17.1 +14.5 85 +17 +18 1005.0 1000.7 +16.3
06 15.06 ЮВ 2 20 км 10/0
[Ac cast Ci]
+25.5 +20.8 75 +32 +38 очень
душно
1005.0 1000.8 +16.3
09 15.06 В 3 20 км 10/1 600 м
[Cu hum Ac cast Cc]
+34.4 +15.1 32 +36 +43 душно 1004.4 1000.3
12 15.06 ЮЗ 3 20 км гроза без осадков 10/8 600 м
[Cb cap Ac cast Cc]
+32.9 +16.3 37 +36 +37 очень
душно
1004.9 1000.8
15 15.06 СЗ 2
{11}
20 км {гроза} 10/8 600 м
[Cb cap Ac cast Ci sp]
+31.4 +17.6 44 +36 +36 очень
душно
1004.7 1000.6
18 15.06 Ю 1 20 км {гроза} 10/8 600 м
[Cb cap Ac trans Ci fib]
+26.7 +18.3 60 +31 +31 душно 1005.7 1001.5 +35.4
21 15.06 штиль 0 н/о 8/8 600 м
[Cb cap]
+23.8 +18.4 72 +28 +28 душно 1006.4 1002.2
00 16.06 штиль 0 н/о в посл. час ливневой дождь 10/10 600 м
[Cb cap]
+21.5 +21.1 98 +27 +27 душно 1006.8 1002.6
03 16.06 СВ 1 10 км слабый ливневой дождь 10/10 600 м
[Cb cap]
+21.0 +20.7 98 +27 +27 душно 1007.0 1002.7 +20.7 1
06 16.06 ЮВ 2 20 км {ливн. осадки} 10/10 600 м
[Cb cap]
+22.8 +21.0 90 +30 +30 очень
душно
1008.1 1003.9 +20.7 1
09 16.06 В 3 20 км {ливн. осадки} 10/10 600 м
[Cb cap]
+24.4 +17.9 67 +29 +29 душно 1008.5 1004.3
12 16.06 ЮВ 4 20 км {ливн. осадки} 10/10 600 м
[Cb cap Ci sp]
+29.3 +15.4 43 +32 +32 душно 1008.0 1003.8
15 16.06 В 2 20 км 10/8 600 м
[Cb cap Ci sp]
+28.7 +14.9 43 +31 +32 жарко 1007.1 1002.9 0.0
18 16.06 ЮВ 3 20 км 10/0
[Ac trans Ci]
+24.9 +18.1 66 +29 +29 душно 1007.6 1003.4 +30.1 0.0
21 16.06 ЮВ 2 н/о 10/10 600 м
[Sc]
+22.4 +18.3 78 +28 +28 душно 1008.3 1004.1
00 17.06 ЮВ 2 н/о 10/10 600 м
[Sc]
+20.7 +17.5 82 +25 +25 комфорт 1008.5 1004.2
03 17.06 штиль 0 20 км 10/3 600 м
[Sc Ac cast Cc]
+20.9 +19.6 92 +25 +26 комфорт 1008.6 1004.3 +19.8
06 17.06 В 3 20 км в посл. час ливневой дождь 9/4 600 м
[Cb cap Ac trans Ci sp]
+22.9 +17.6 72 +28 +31 душно 1008.5 1004.3 +19.8 0.0
09 17.06 В 4 20 км в посл. час ливневой дождь 10/10 600 м
[Cb cap]
+25.2 +17.0 60 +29 +29 душно 1008.8 1004.6
12 17.06 В 4
{11}
20 км {ливн. осадки} 10/8 600 м
[Sc Ac trans]
+24.2 +15.8 59 +27 +28 жарко 1008.8 1004.6
15 17.06 В 4
{10}
20 км 10/10 600 м
[Sc]
+23.8 +14.8 57 +27 +27 жарко 1008.8 1004.6 0.0
18 17.06 В 2 20 км 10/8 600 м
[Sc Ci sp]
+22.9 +15.0 61 +27 +27 душно 1009.0 1004.8 +26.3 0.0
21 17.06 В 1 н/о 8/8 600 м
[Cb cap]
+20.1 +17.3 84 +24 +24 комфорт 1009.3 1005.0
00 18.06 СВ 1 н/о 8/8 600 м
[Cb cap]
+19.4 +5.3 40 +21 +21 комфорт 1008.4 1004.1
03 18.06 СВ 2 20 км 9/9 600 м
[Sc]
+20.0 +18.1 89 +24 +24 комфорт 1007.8 1003.5 +18.7
06 18.06 В 5 20 км 8/4 600 м
[Sc Cc]
+26.8 +12.8 42 +28 +31 жарко 1008.0 1003.8 +18.7
09 18.06 В 5-11
{10}
20 км 9/3 600 м
[Sc Ac trans Ci sp]
+29.1 +10.3 31 +29 +33 жарко 1008.6 1004.4
12 18.06 В 6-12
{12}
20 км 9/5 600 м
[Cu Sc Ci sp]
+28.0 +6.3 25 +27 +30 жарко 1009.1 1004.9
15 18.06 ЮВ 6-12
{14}
20 км 8/3 600 м
[Sc Cc]
+28.6 +0.8 17 +26 +27 жарко 1009.2 1005.0
18 18.06 В 1
{12}
20 км 8/3 600 м
[Sc Ac trans Ci fib]
+22.9 +6.9 36 +24 +24 комфорт 1009.7 1005.4 +30.4
21 18.06 СВ 2 н/о ясно +19.0 +11.8 63 +20 +20 1010.7 1006.4
00 19.06 СВ 2 н/о ясно +18.1 +13.9 76 +19 +19 1011.0 1006.7
03 19.06 С 2 20 км ясно +15.7 +11.7 77 +16 +16 1011.5 1007.1 +15.0
06 19.06 В 4 20 км 1/0
[Ac lent]
+28.2 +12.5 38 +30 +35 жарко 1012.3 1008.1 +15.0
09 19.06 В 6-12
{12}
20 км 1/1 600 м
[Cu hum]
+30.8 +5.2 20 +29 +36 жарко 1012.6 1008.4
12 19.06 В 6-12
{12}
20 км 1/1 600 м
[Cu hum]
+30.9 +2.2 16 +28 +34 жарко 1012.8 1008.6
15 19.06 В 3
{12}
20 км 1/1 600 м
[Cu hum]
+30.9 +1.0 15 +28 +31 жарко 1012.6 1008.4
18 19.06 В 1 20 км ясно +24.4 +1.8 23 +23 +23 комфорт 1013.5 1009.2 +32.2
21 19.06 штиль 0 н/о ясно +17.2 +5.7 47 +17 +17 1014.4 1010.0
00 20.06 ЮЗ 1 н/о ясно +14.0 +6.1 59 +14 +14 1014.9 1010.5
03 20.06 Ю 1 20 км ясно +14.0 +7.1 63 +14 +15 1016.4 1012.0 +12.5
06 20.06 СВ 1 20 км ясно +26.9 +12.5 41 +28 +39 жарко 1015.8 1011.6 +12.5
09 20.06 ЮВ 2 20 км ясно +33.3 +10.0 24 +33 +51 опасность
солнечного
удара
1016.2 1012.0
12 20.06 СВ 3 20 км 2 балла +34.4 +6.6 18 +32 +42 жарко 1016.2 1012.0
15 20.06 СВ 3 20 км 2 балла +34.0 +8.6 21 +33 +35 жарко 1014.8 1010.7
18 20.06 СЗ 3 20 км 7 баллов +28.6 +12.0 36 +30 +30 жарко 1014.9 1010.7 +35.5
21 20.06 З 1 н/о ясно +23.0 +15.3 62 +27 +27 душно 1016.3 1012.0

 

Местоположение метеостанции Клепинино (Крым, Россия): широта 45.53 долгота 34.18 высота над уровнем моря 37 м.

В архиве по умолчанию представлена погода в Клепинино за последнюю неделю. Архивные данные за месяц целиком и за предыдущие месяцы, начиная с января 2011 года, Вы можете получить, выбрав интересующий диапазон дат из раскрывающегося списка и нажав кнопку "Ввод!".


*Определитесь, кто Вы:
робот инопланетянин человек

Внимание! Время в таблицах - всемирное. Для получения местного времени необходимо прибавить поправку, которая в Клепинино равна 3 ч.

Смотрите также архив погоды в соседних городах и на ближайших метеорологических станциях:

Погода в Джанкое (Крым, Россия) (27 км)
Погода в Стрелковом (Херсонская область, Украина) (29 км)
Погода в Нижнегорском (Крым, Россия) (44 км)
Погода в Ишуни (Крым, Россия) (52 км)
Погода в Симферополе (Крым, Россия) (58 км)
Погода в Раздольном (Крым, Россия) (61 км)
Погода в Белогорске (Крым, Россия) (63 км)
Погода в Симферополе город (Крым, Россия) (65 км)
Погода в Евпатории (Крым, Россия) (74 км)
Погода в Почтовом (Крым, Россия) (80 км)

Пояснения к столбцам:

Ветер - указаны скорость ветра в м/с - средняя за 10 мин, порывы в срок и между сроками (в фигурных скобках) и направление, откуда дует ветер: С - северный, СВ - северо-восточный, В - восточный, ЮВ - юго-восточный, Ю - южный, ЮЗ - юго-западный, З - западный, СЗ - северо-западный.
Видимость - горизонтальная дальность видимости в метрах или километрах. При видимости от 1 до 10 км при отсутствии осадков обычно наблюдается дымка, при ухудшении видимости до 1 км и менее - туман. В сухую погоду видимость может ухудшаться дымом, пылью или мглою.
Явления - указаны атмосферные явления, наблюдавшиеся в срок или в последний час перед сроком; фигурными скобками обозначены явления, наблюдавшиеся между сроками (за 1-3 часа до срока); квадратными скобками обозначены град или гололедные отложения с указанием их диаметра в мм.
Облачность - указаны через наклонную черту общая и нижняя облачность в баллах и высота нижней границы облаков в метрах; квадратными скобками обозначены формы облаков: Ci - перистые, Cs - перисто-слоистые, Cc - перисто-кучевые, Ac - высококучевые, As - высокослоистые, Sc - слоисто-кучевые, Ns - слоисто-дождевые, Cu - кучевые, Cb - кучево-дождевые. Подробнее классификацию облаков см. в Атласе облаков (PDF).
T - Температура воздуха - температура, измеренная на высоте 2 м над землей.
Td - Температура точки росы - температура, при понижении до которой содержащийся в воздухе водяной пар достигнет насыщения.
f - Относительная влажность воздуха - влажноcть воздуха, измеренная на высоте 2 м над землей.
Te - Эффективная температура - температура, которую ощущает одетый по сезону человек в тени. Характеристика душности погоды. При расчете учитывается влияние влажности воздуха и скорости ветра на теплоощущения человека.
Tes - Эффективная температура на солнце - температура, которую ощущает человек, с поправкой на солнечный нагрев. Характеристика знойности погоды. Зависит от высоты солнца над горизонтом, облачности и скорости ветра. Ночью, в пасмурную погоду, а также при ветре 12 м/с и более поправка равна нулю.
P - Атмосферное давление - приведенное к уровню моря атмосферное давление.
Po - Атмосферное давление - измеренное на уровне метеостанции атмосферное давление.
Tmin - Минимальная температура - минимум температуры воздуха на высоте 2 м над землей.
Tmax - Максимальная температура - максимум температуры воздуха на высоте 2 м над землей.
R - Количество осадков - Количество выпавших осадков за период времени, мм. При наведении курсора мыши на число - период времени, за который выпало указанное количество осадков.
R24 - Количество осадков - Количество выпавших осадков за 24 часа, мм.
S - Снежный покров - Высота снежного покрова, см. При наведении курсора мыши на число - состояние снежного покрова и степень покрытия местности в баллах.